Home   Weather   Kugluktuk   Past weeks

Flag for Canada Past Weather in Kugluktuk, Nunavut, Canada — Yesterday and Last 2 Weeks

Now
50 °F

Mostly cloudy.


Feels Like: 44 °F
Forecast: 47 / 52 °F
Wind: 16 mph from North

Location: Coppermine

Current Time: Aug 20, 2017 at 7:51:13 am

Latest Report: Aug 20, 2017 at 7:00 am


Visibility: 12 mi

Pressure: 29.62 "Hg

Humidity: 100%

Dew Point: 50 °F

Location of KugluktukLocation

Past Weather in Kugluktuk — Graph

°F

Kugluktuk Temperature Yesterday

Maximum temperature yesterday: 55 °F (at 12:00 am)
Minimum temperature yesterday: 48 °F (at 3:00 am)
Average temperature yesterday: 52 °F

High & Low Weather Summary for the Past Weeks

 TemperatureHumidityPressure
High79 °F (Aug 8, 4:00 pm)100% (Aug 5, 9:55 am)30.16 "Hg (Aug 5, 9:55 am)
Low41 °F (Aug 6, 5:00 am)33% (Aug 16, 5:00 pm)29.42 "Hg (Aug 16, 8:00 pm)
Average56 °F84%29.73 "Hg
* Reported Aug 5 6:00 am — Aug 20 6:00 am, Kugluktuk. Weather by CustomWeather, © 2017

Note: Actual official high and low records may vary slightly from our data, if they occured in-between our weather recording intervals... More about our weather records

Advertising

Kugluktuk Weather History for the Previous 24 Hours

Scroll right to see more
 ConditionsComfort  
Time TempWeatherWind HumidityBarometerVisibility
6:00 am
Sun, Aug 20
50 °FFog.14 mph94%29.62 "Hg12 mi
5:00 am52 °FFog.15 mph94%29.61 "Hg10 mi
4:00 am50 °FFog.14 mph100%29.59 "Hg12 mi
3:44 am50 °FFog.15 mph100%29.59 "Hg12 mi
3:09 am50 °FLight rain. Fog.14 mph100%29.59 "Hg12 mi
2:00 am50 °FFog.16 mph100%29.57 "Hg12 mi
1:00 am52 °FFog.18 mph94%29.56 "Hg12 mi
12:00 am52 °FFog.13 mph100%29.56 "Hg12 mi
11:00 pm
Sat, Aug 19
52 °FFog.10 mph94%29.56 "Hg12 mi
10:00 pm52 °FFog.10 mph94%29.55 "Hg12 mi
9:00 pm52 °FFog.10 mph94%29.55 "Hg12 mi
8:00 pm52 °FScattered showers. Fog.10 mph94%29.55 "Hg12 mi
7:54 pm52 °FScattered showers. Fog.12 mph94%29.54 "Hg12 mi
7:29 pm52 °FDrizzle. More clouds than sun.13 mph94%29.54 "Hg12 mi
7:00 pm52 °FMore clouds than sun.10 mph94%29.54 "Hg12 mi
6:00 pm52 °FLight rain. Mostly cloudy.9 mph94%29.53 "Hg12 mi
5:42 pm52 °FLight rain. Mostly cloudy.8 mph94%29.53 "Hg10 mi
5:00 pm52 °FMore clouds than sun.9 mph94%29.53 "Hg12 mi
4:00 pm52 °FLow clouds.9 mph94%29.53 "Hg10 mi
3:42 pm52 °FLow clouds.9 mph94%29.52 "Hg10 mi
3:00 pm52 °FMostly cloudy.9 mph94%29.52 "Hg10 mi
2:55 pm52 °FMostly cloudy.10 mph94%29.52 "Hg10 mi
2:31 pm54 °FMostly cloudy.14 mph88%29.51 "Hg8 mi
2:06 pm52 °FMostly cloudy.12 mph94%29.51 "Hg8 mi
1:49 pm54 °FLow clouds.12 mph94%29.51 "Hg8 mi
1:00 pm54 °FLight rain. Low clouds.7 mph88%29.50 "Hg6 mi
12:00 pm52 °FFog.6 mph94%29.49 "Hg5 mi
11:51 am52 °FFog.6 mph94%29.49 "Hg6 mi
11:00 am52 °FLow clouds.8 mph94%29.50 "Hg6 mi
10:00 am52 °FLow clouds.8 mph94%29.50 "Hg4 mi
9:00 am52 °FLow clouds.8 mph94%29.50 "Hg4 mi
8:00 am50 °FFog.9 mph100%29.49 "Hg3 mi
7:00 am50 °FFog.8 mph100%29.49 "Hg4 mi
Weather by CustomWeather, © 2017

See weather overviewHow to use our weather pages